This demonstration page uses our WeatherBlox Daily Observations layout. Learn more.

Left ArrowRight Arrow

44.8408, -93.29828

Hourly Observations for August 20, 2021

Temp ( °F °C ) Dew Point ( °F °C ) Humidity (%) Winds ( mph kmh ) Pressure ( in mb ) Visibility ( mi km ) Precip ( " mm )
12:53 am 00:53 Clear 78 25.6 68 20 71 71 S 12 19 29.93 1013 10 16 0.00 0.00
1:53 am 01:53 Mostly Clear 77 25 67 19.4 71 71 S 10 17 29.91 1013 10 16 0.00 0.00
2:53 am 02:53 Mostly Clear 75 23.9 66 18.9 74 74 SSE 5 7 29.91 1013 10 16 0.00 0.00
3:53 am 03:53 Clear 73 22.8 66 18.9 79 79 SSE 7 11 29.90 1013 10 16 0.00 0.00
4:53 am 04:53 Clear 72 22.2 66 18.9 82 82 SE 7 11 29.90 1012 10 16 0.00 0.00
5:53 am 05:53 Partly Cloudy 71 21.7 65 18.3 81 81 SSE 6 9 29.88 1012 10 16 0.00 0.00
6:53 am 06:53 Cloudy 72 22.2 65 18.3 79 79 SSE 8 13 29.88 1012 10 16 0.00 0.00
7:53 am 07:53 Mostly Cloudy 73 22.8 66 18.9 79 79 SSE 8 13 29.88 1012 10 16 0.00 0.00
8:53 am 08:53 Mostly Cloudy 76 24.4 67 19.4 74 74 S 9 15 29.88 1012 10 16 0.00 0.00
9:53 am 09:53 Partly Cloudy 79 26.1 68 20 69 69 SSE 12 19 29.85 1011 10 16 0.00 0.00
10:53 am 10:53 Mostly Sunny 83 28.3 67 19.4 59 59 SSE 16 26 29.82 1010 10 16 0.00 0.00
11:53 am 11:53 Mostly Sunny 85 29.4 66 18.9 53 53 S 21 33 29.80 1009 10 16 0.00 0.00
12:53 pm 12:53 Mostly Cloudy 86 30 66 18.9 51 51 SSE 17 28 29.80 1009 10 16 0.00 0.00
1:53 pm 13:53 Mostly Cloudy 88 31.1 66 18.9 48 48 S 16 26 29.78 1009 10 16 0.00 0.00
2:53 pm 14:53 Mostly Cloudy 89 31.7 64 17.8 43 43 S 18 30 29.76 1008 10 16 0.00 0.00
3:53 pm 15:53 Mostly Cloudy 90 32.2 64 17.8 42 42 SSE 18 30 29.73 1007 10 16 0.00 0.00
4:53 pm 16:53 Mostly Cloudy 87 30.6 64 17.8 46 46 S 14 22 29.72 1006 10 16 0.00 0.00
5:53 pm 17:53 Mostly Cloudy 86 30 65 18.3 49 49 SSE 15 24 29.72 1006 10 16 0.00 0.00
6:53 pm 18:53 Cloudy 84 28.9 66 18.9 55 55 SSE 18 30 29.68 1005 10 16 0.00 0.00
7:53 pm 19:53 Cloudy 83 28.3 67 19.4 59 59 SSE 17 28 29.66 1005 10 16 0.00 0.00
8:53 pm 20:53 Cloudy with Light Rain 82 27.8 67 19.4 60 60 S 14 22 29.68 1005 10 16 0.00 0.00
9:53 pm 21:53 Cloudy with Rain 76 24.4 70 21.1 82 82 SSW 6 9 29.70 1006 6 10 0.03 0.76
10:53 pm 22:53 Cloudy with Mist and Fog 76 24.4 72 22.2 88 88 SSE 7 11 29.66 1004 6 10 0.07 1.78
11:53 pm 23:53 Cloudy with Mist and Fog 75 23.9 71 21.7 88 88 S 10 17 29.66 1004 6 10 0.00 0.00

Powered by AerisWeather